Home   Weather   Vincennes   Past weeks

Flag for USA Past Weather in Vincennes, Indiana, USA — Yesterday and Last 2 Weeks

Now
46 °F

Light rain. Fog.


Feels Like: 42 °F
Forecast: 38 / 49 °F
Wind: 7 mph from East

Location: Lawrenceville-Vincennes International Airport

Current Time: Jan 19, 2017 at 4:56:21 pm

Latest Report: Jan 19, 2017 at 3:53 pm


Visibility: 6 mi

Pressure: 29.81 "Hg

Humidity: 93%

Dew Point: 44 °F

Location of VincennesLocation

Past Weather in Vincennes — Graph

°F

Vincennes Temperature Yesterday

Maximum temperature yesterday: 41 °F (at 12:01 am)
Minimum temperature yesterday: 37 °F (at 9:53 pm)
Average temperature yesterday: 39 °F

High & Low Weather Summary for the Past Weeks

 TemperatureHumidityPressure
High65 °F (Jan 12, 2:53 am)100% (Jan 11, 11:10 am)30.84 "Hg (Jan 11, 11:10 am)
Low1 °F (Jan 7, 6:53 am)53% (Jan 6, 1:53 pm)29.66 "Hg (Jan 10, 3:53 pm)
Average34 °F86%30.25 "Hg
* Reported Jan 4 2:53 pm — Jan 19 2:53 pm, Vincennes, Weather by CustomWeather, © 2017

Note: Actual official high and low records may vary slightly from our data, if they occured in-between our weather recording intervals... More about our weather records

Advertising

Vincennes Weather History for the Previous 24 Hours

Scroll right to see more
 ConditionsComfort  
Time TempWeatherWind HumidityBarometerVisibility
2:53 pm
Thu, Jan 19
46 °FLight rain. Fog.5 mph89%29.84 "Hg6 mi
1:53 pm46 °FOvercast.6 mph89%29.88 "Hg8 mi
1:29 pm45 °FLight rain. Mostly cloudy.6 mph93%29.89 "Hg7 mi
12:53 pm45 °FLight rain. Fog.10 mph90%29.90 "Hg5 mi
11:53 am45 °FMostly cloudy.10 mph86%29.98 "Hg8 mi
10:53 am44 °FOvercast.8 mph85%29.99 "Hg8 mi
9:53 am42 °FMostly cloudy.8 mph92%30.00 "Hg7 mi
8:53 am40 °FFog.9 mph97%30.01 "Hg6 mi
7:53 am40 °FOvercast.6 mph93%30.02 "Hg7 mi
6:53 am39 °FOvercast.8 mph96%30.03 "Hg7 mi
5:53 am39 °FFog.6 mph96%30.06 "Hg5 mi
4:53 am38 °FFog.No wind97%30.08 "Hg5 mi
3:53 am37 °FFog.No wind100%30.09 "Hg5 mi
2:53 am38 °FFog.5 mph93%30.09 "Hg5 mi
1:53 am38 °FFog.3 mph97%30.09 "Hg6 mi
12:53 am37 °FFog.5 mph100%30.12 "Hg5 mi
11:53 pm
Wed, Jan 18
37 °FFog.7 mph96%30.13 "Hg6 mi
10:53 pm37 °FClear.3 mph96%30.15 "Hg7 mi
9:53 pm37 °FClear.5 mph96%30.15 "Hg8 mi
8:53 pm38 °FClear.6 mph97%30.14 "Hg8 mi
7:53 pm39 °FPassing clouds.3 mph93%30.15 "Hg10 mi
6:53 pm40 °FOvercast.5 mph89%30.15 "Hg10 mi
6:33 pm40 °FOvercast.9 mph89%30.14 "Hg10 mi
5:53 pm41 °FOvercast.10 mph86%30.17 "Hg10 mi
4:53 pm41 °FOvercast.8 mph86%30.15 "Hg10 mi
Weather by CustomWeather, © 2017

See weather overviewHow to use our weather pages